Location: Dover
(48.8500°N, 53.9833°W)
Time: 17:47:14
(UTC+00:00)

IRS-1C - Pass Details

Date: 14 November 2025
Orbit: 813 x 814 km, 99.0° (Epoch: 09 December)

Event Time Altitude Azimuth Distance (km) Brightness Sun altitude
Rises 20:27:47 0° 147° (SSE) 3,328 7.2 -5.5°
Reaches altitude 10° 20:30:10 10° 142° (SE) 2,400 6.4 -5.9°
Maximum altitude 20:35:18 52° 68° (ENE) 1,013 4.3 -6.7°
Drops below altitude 10° 20:40:27 10° 353° (N) 2,415 6.5 -7.5°
Sets 20:42:51 0° 349° (N) 3,351 7.2 -7.8°
